FW9451 Weather Reports


Display with metric or nautical units.
time (UTC)temp
F
wind
direction
speed
MPH
gust
MPH
rain 1hr
in
rain 24hr
in
rain mn
in
humidity
%
barometer
mb
20260901074553 55 61 4.0 10.0 0.00 0.00 0.00 89 1019.2
20260901073107 55 18 3.0 7.0 0.00 0.00 0.00 90 1019.4
20260901071557 56 15 4.0 10.0 0.00 0.00 0.00 90 1019.4
20260901070057 56 19 4.0 9.0 0.00 0.00 0.00 90 1019.3
20260901064558 56 17 4.0 8.0 0.00 0.00 0.00 90 1019.3
20260901063059 56 17 2.0 5.0 0.00 0.00 0.00 90 1019.4
20260901061558 56 11 1.0 3.0 0.00 0.00 0.00 89 1019.5
20260901060057 56 43 2.0 4.0 0.00 0.00 0.00 89 1019.5
20260901054556 56 5 2.0 4.0 0.00 0.00 0.00 89 1019.8
20260901053103 56 18 2.0 4.0 0.00 0.00 0.00 89 1019.8
20260901051555 57 26 2.0 5.0 0.00 0.00 0.00 89 1019.6
20260901050105 58 0 0.0 2.0 0.00 0.00 0.00 89 1019.5
20260901044603 57 0 0.0 3.0 0.00 0.00 0.00 88 1019.5
20260901043058 57 0 0.0 0.0 0.00 0.00 0.00 87 1019.4
20260901041558 58 99 1.0 3.0 0.00 0.00 0.00 87 1019.4
20260901040105 58 132 0.0 2.0 0.00 0.00 0.00 86 1019.5
20260901034600 58 0 0.0 2.0 0.00 0.00 0.00 85 1019.5
20260901033055 58 0 0.0 2.0 0.00 0.00 0.00 85 1019.5
20260901031555 58 111 1.0 2.0 0.00 0.00 0.00 84 1019.4
20260901030053 58 81 0.0 2.0 0.00 0.00 0.00 84 1019.6
20260901024601 59 0 0.0 1.0 0.00 0.00 0.00 83 1019.7
20260901023058 59 81 0.0 0.0 0.00 0.00 0.00 82 1019.7
20260901021555 59 0 0.0 2.0 0.00 0.00 0.00 81 1019.7
20260901020057 60 0 0.0 3.0 0.00 0.00 0.00 80 1019.7
20260901014554 60 193 1.0 3.0 0.00 0.00 0.00 80 1019.8
20260901013116 60 186 1.0 4.0 0.00 0.00 0.00 80 1019.5
20260901011556 60 195 1.0 4.0 0.00 0.00 0.00 79 1019.4
20260901010107 61 0 0.0 2.0 0.00 0.00 0.00 77 1019.6
20260901004607 61 0 0.0 1.0 0.00 0.00 0.00 76 1019.5
20260901003059 61 0 0.0 2.0 0.00 0.00 0.00 75 1019.4
20260901001559 62 0 0.0 3.0 0.00 0.00 0.00 74 1019.4
20260831234553 63 194 2.0 6.0 0.00 0.00 0.00 70 1019.1
20260831233055 64 187 1.0 4.0 0.00 0.00 0.00 68 1019.1
20260831231558 65 0 2.0 6.0 0.00 0.00 0.00 66 1019.3
20260831230057 66 236 3.0 6.0 0.00 0.00 0.00 64 1019.2
20260831224601 68 224 2.0 8.0 0.00 0.00 0.00 61 1019.2
20260831223055 68 227 2.0 9.0 0.00 0.00 0.00 60 1019.3
20260831221556 69 202 4.0 10.0 0.00 0.00 0.00 58 1019.3
20260831220057 70 229 3.0 12.0 0.00 0.00 0.00 56 1019.1
20260831214611 70 190 6.0 10.0 0.00 0.00 0.00 55 1019.3
20260831213103 72 218 6.0 12.0 0.00 0.00 0.00 52 1019.3
20260831211556 72 178 4.0 11.0 0.00 0.00 0.00 52 1019.3
20260831210049 71 240 6.0 11.0 0.00 0.00 0.00 53 1019.4
20260831204603 73 234 4.0 11.0 0.00 0.00 0.00 49 1019.4
20260831203102 72 213 7.0 15.0 0.00 0.00 0.00 48 1019.4
20260831201610 76 155 4.0 12.0 0.00 0.00 0.00 43 1019.4
20260831200056 76 225 4.0 8.0 0.00 0.00 0.00 32 1019.3
20260831194601 77 227 6.0 10.0 0.00 0.00 0.00 33 1019.4
20260831193129 76 0 4.0 9.0 0.00 0.00 0.00 37 1019.5
20260831191555 76 187 2.0 9.0 0.00 0.00 0.00 37 1019.8
20260831190057 76 217 5.0 11.0 0.00 0.00 0.00 37 1019.6
20260831184605 78 29 1.0 6.0 0.00 0.00 0.00 36 1019.9
20260831183103 76 216 3.0 8.0 0.00 0.00 0.00 38 1019.9
20260831181609 76 355 1.0 10.0 0.00 0.00 0.00 38 1020.2
20260831174551 75 21 1.0 7.0 0.00 0.00 0.00 42 1020.5
20260831173100 74 352 4.0 10.0 0.00 0.00 0.00 40 1020.7
20260831171556 74 261 2.0 11.0 0.00 0.00 0.00 43 1020.7
20260831170054 73 244 2.0 9.0 0.00 0.00 0.00 43 1020.8
20260831164610 72 332 6.0 11.0 0.00 0.00 0.00 42 1021.0
20260831163103 72 306 3.0 12.0 0.00 0.00 0.00 44 1021.3
20260831161607 71 27 2.0 11.0 0.00 0.00 0.00 46 1021.3
20260831160110 69 46 7.0 14.0 0.00 0.00 0.00 46 1021.3
20260831154629 69 45 5.0 11.0 0.00 0.00 0.00 46 1021.5
20260831153058 69 17 3.0 9.0 0.00 0.00 0.00 46 1021.7
20260831151558 68 9 3.0 15.0 0.00 0.00 0.00 49 1021.8
20260831144603 66 17 3.0 11.0 0.00 0.00 0.00 51 1022.0
20260831143055 66 352 3.0 10.0 0.00 0.00 0.00 56 1022.0
20260831141607 66 336 3.0 10.0 0.00 0.00 0.00 55 1022.0
20260831140055 66 305 2.0 6.0 0.00 0.00 0.00 61 1022.0
20260831134608 64 344 1.0 6.0 0.00 0.00 0.00 62 1022.0
20260831133058 64 0 2.0 8.0 0.00 0.00 0.00 65 1021.9
20260831131602 63 289 2.0 9.0 0.00 0.00 0.00 67 1021.7
20260831130109 62 9 1.0 8.0 0.00 0.00 0.00 70 1021.6
20260831124600 61 260 2.0 9.0 0.00 0.00 0.00 71 1021.7
20260831123059 60 342 2.0 8.0 0.00 0.00 0.00 73 1021.5
20260831121609 59 16 2.0 8.0 0.00 0.00 0.00 75 1021.5
20260831120100 58 0 2.0 5.0 0.00 0.00 0.00 79 1021.6
20260831114607 56 0 0.0 4.0 0.00 0.00 0.00 82 1021.5
20260831113105 56 13 1.0 5.0 0.00 0.00 0.00 82 1021.4
20260831111605 55 5 2.0 6.0 0.00 0.00 0.00 83 1021.4
20260831110100 55 9 3.0 9.0 0.00 0.00 0.00 84 1021.0
20260831104601 55 43 3.0 8.0 0.00 0.00 0.00 84 1021.1
20260831103056 55 34 2.0 8.0 0.00 0.00 0.00 84 1021.0
20260831101558 55 320 2.0 8.0 0.00 0.00 0.00 85 1020.9
20260831100114 55 5 1.0 4.0 0.00 0.00 0.00 86 1020.8
20260831094558 55 300 0.0 3.0 0.00 0.00 0.00 86 1020.7
20260831093102 55 0 0.0 3.0 0.00 0.00 0.00 85 1020.6
20260831091551 55 278 1.0 6.0 0.00 0.00 0.00 85 1020.5
20260831090118 55 288 0.0 3.0 0.00 0.00 0.00 85 1020.3
20260831084601 56 0 1.0 4.0 0.00 0.00 0.00 84 1020.2
20260831083111 56 310 2.0 8.0 0.00 0.00 0.00 83 1020.0
20260831081558 56 14 1.0 5.0 0.00 0.00 0.00 83 1020.0
20260831080128 56 332 2.0 5.0 0.00 0.00 0.00 83 1019.8